<?xml version='1.0' encoding='UTF-8'?>
<gpx xmlns="http://www.topografix.com/GPX/1/1" creator="www.balnam.be" version="1.1" xmlns:xsi="http://www.w3.org/2001/XMLSchema-instance" xsi:schemaLocation="http://www.topografix.com/GPX/1/1 http://www.topografix.com/GPX/1/1/gpx.xsd">
<trk>
<name>njmms1</name>
<cmt>r</cmt>
<desc>Moustier-sur-Sambre Chemin n°1 </desc>
<link href="https://chemins.be/moustiersursambre/chemin/1"/><trkseg>
<trkpt lat="50.466370" lon="4.697204"><time>2026-05-07T22:19:14Z</time></trkpt>
<trkpt lat="50.467061" lon="4.697604"><time>2026-05-07T22:29:14Z</time></trkpt>
<trkpt lat="50.467224" lon="4.700337"><time>2026-05-07T22:39:14Z</time></trkpt>
<trkpt lat="50.467233" lon="4.703281"><time>2026-05-07T22:49:14Z</time></trkpt>
<trkpt lat="50.467757" lon="4.705807"><time>2026-05-07T22:59:14Z</time></trkpt>
</trkseg>
</trk>
<trk>
<name>njmms10</name>
<cmt>r</cmt>
<desc>Moustier-sur-Sambre Chemin n°10 Rue du Moulin</desc>
<link href="https://chemins.be/moustiersursambre/chemin/10"/><trkseg>
<trkpt lat="50.464326" lon="4.681965"><time>2026-05-07T22:19:14Z</time></trkpt>
<trkpt lat="50.464528" lon="4.680473"><time>2026-05-07T22:29:14Z</time></trkpt>
<trkpt lat="50.464718" lon="4.679826"><time>2026-05-07T22:39:14Z</time></trkpt>
<trkpt lat="50.465091" lon="4.678251"><time>2026-05-07T22:49:14Z</time></trkpt>
<trkpt lat="50.465444" lon="4.677521"><time>2026-05-07T22:59:14Z</time></trkpt>
<trkpt lat="50.465561" lon="4.677367"><time>2026-05-07T23:09:14Z</time></trkpt>
<trkpt lat="50.465562" lon="4.677001"><time>2026-05-07T23:19:14Z</time></trkpt>
</trkseg>
</trk>
<trk>
<name>njmms11</name>
<cmt>r</cmt>
<desc>Moustier-sur-Sambre Chemin n°11 Ruelle Aux Loups</desc>
<link href="https://chemins.be/moustiersursambre/chemin/11"/><trkseg>
<trkpt lat="50.464502" lon="4.676839"><time>2026-05-07T22:19:14Z</time></trkpt>
<trkpt lat="50.464696" lon="4.678277"><time>2026-05-07T22:29:14Z</time></trkpt>
<trkpt lat="50.464830" lon="4.678545"><time>2026-05-07T22:39:14Z</time></trkpt>
</trkseg>
</trk>
<trk>
<name>njmms11bis</name>
<cmt>r</cmt>
<desc>Moustier-sur-Sambre Chemin n°11bis Rue du Moulin</desc>
<link href="https://chemins.be/moustiersursambre/chemin/11bis"/><trkseg>
<trkpt lat="50.464385" lon="4.676683"><time>2026-05-07T22:19:14Z</time></trkpt>
<trkpt lat="50.464960" lon="4.676729"><time>2026-05-07T22:29:14Z</time></trkpt>
<trkpt lat="50.465580" lon="4.676944"><time>2026-05-07T22:39:14Z</time></trkpt>
</trkseg></trk>
<trk>
<name>njmms11bis</name>
<cmt>v</cmt>
<desc>Moustier-sur-Sambre Chemin n°11bis Rue du Moulin</desc>
<link href="https://chemins.be/moustiersursambre/chemin/11bis"/><trkseg>
<trkpt lat="50.465580" lon="4.676944"><time>2026-05-07T22:39:14Z</time></trkpt>
<trkpt lat="50.466336" lon="4.676639"><time>2026-05-07T22:49:14Z</time></trkpt>
<trkpt lat="50.466885" lon="4.676530"><time>2026-05-07T22:59:14Z</time></trkpt>
</trkseg>
</trk>
<trk>
<name>njmms12</name>
<cmt>r</cmt>
<desc>Moustier-sur-Sambre Chemin n°12 Rue des Prairies</desc>
<link href="https://chemins.be/moustiersursambre/chemin/12"/><trkseg>
<trkpt lat="50.462946" lon="4.677138"><time>2026-05-07T22:19:14Z</time></trkpt>
<trkpt lat="50.462676" lon="4.677221"><time>2026-05-07T22:29:14Z</time></trkpt>
<trkpt lat="50.462468" lon="4.677558"><time>2026-05-07T22:39:14Z</time></trkpt>
<trkpt lat="50.461603" lon="4.678130"><time>2026-05-07T22:49:14Z</time></trkpt>
</trkseg></trk>
<trk>
<name>njmms12</name>
<cmt>s</cmt>
<desc>Moustier-sur-Sambre Chemin n°12 Rue des Prairies</desc>
<link href="https://chemins.be/moustiersursambre/chemin/12"/><trkseg>
<trkpt lat="50.461603" lon="4.678130"><time>2026-05-07T22:49:14Z</time></trkpt>
<trkpt lat="50.460918" lon="4.678773"><time>2026-05-07T22:59:14Z</time></trkpt>
</trkseg>
</trk>
<trk>
<name>njmms13</name>
<cmt>r</cmt>
<desc>Moustier-sur-Sambre Chemin n°13 Rue de Jemeppe</desc>
<link href="https://chemins.be/moustiersursambre/chemin/13"/><trkseg>
<trkpt lat="50.463024" lon="4.678054"><time>2026-05-07T22:19:14Z</time></trkpt>
<trkpt lat="50.462727" lon="4.678095"><time>2026-05-07T22:29:14Z</time></trkpt>
</trkseg></trk>
<trk>
<name>njmms13</name>
<cmt>v</cmt>
<desc>Moustier-sur-Sambre Chemin n°13 Rue de Jemeppe</desc>
<link href="https://chemins.be/moustiersursambre/chemin/13"/><trkseg>
<trkpt lat="50.462727" lon="4.678095"><time>2026-05-07T22:29:14Z</time></trkpt>
<trkpt lat="50.462477" lon="4.677600"><time>2026-05-07T22:39:14Z</time></trkpt>
</trkseg>
</trk>
<trk>
<name>njmms14</name>
<cmt>r</cmt>
<desc>Moustier-sur-Sambre Chemin n°14 Rue des Haies</desc>
<link href="https://chemins.be/moustiersursambre/chemin/14"/><trkseg>
<trkpt lat="50.462279" lon="4.677754"><time>2026-05-07T22:19:14Z</time></trkpt>
<trkpt lat="50.461980" lon="4.678597"><time>2026-05-07T22:29:14Z</time></trkpt>
<trkpt lat="50.462148" lon="4.679359"><time>2026-05-07T22:39:14Z</time></trkpt>
<trkpt lat="50.463001" lon="4.683111"><time>2026-05-07T22:49:14Z</time></trkpt>
</trkseg></trk>
<trk>
<name>njmms14</name>
<cmt>v</cmt>
<desc>Moustier-sur-Sambre Chemin n°14 Rue des Haies</desc>
<link href="https://chemins.be/moustiersursambre/chemin/14"/><trkseg>
<trkpt lat="50.463001" lon="4.683111"><time>2026-05-07T22:49:14Z</time></trkpt>
<trkpt lat="50.463221" lon="4.684999"><time>2026-05-07T22:59:14Z</time></trkpt>
</trkseg></trk>
<trk>
<name>njmms14</name>
<cmt>d</cmt>
<desc>Moustier-sur-Sambre Chemin n°14 Rue des Haies</desc>
<link href="https://chemins.be/moustiersursambre/chemin/14"/><trkseg>
<trkpt lat="50.463221" lon="4.684999"><time>2026-05-07T22:59:14Z</time></trkpt>
<trkpt lat="50.462949" lon="4.686026"><time>2026-05-07T23:09:14Z</time></trkpt>
<trkpt lat="50.462877" lon="4.689180"><time>2026-05-07T23:19:14Z</time></trkpt>
<trkpt lat="50.463044" lon="4.692683"><time>2026-05-07T23:29:14Z</time></trkpt>
<trkpt lat="50.463136" lon="4.694410"><time>2026-05-07T23:39:14Z</time></trkpt>
</trkseg></trk>
<trk>
<name>njmms14</name>
<cmt>v</cmt>
<desc>Moustier-sur-Sambre Chemin n°14 Rue des Haies</desc>
<link href="https://chemins.be/moustiersursambre/chemin/14"/><trkseg>
<trkpt lat="50.463136" lon="4.694410"><time>2026-05-07T23:39:14Z</time></trkpt>
<trkpt lat="50.463138" lon="4.695590"><time>2026-05-07T23:49:14Z</time></trkpt>
</trkseg>
</trk>
<trk>
<name>njmms14bis</name>
<cmt>r</cmt>
<desc>Moustier-sur-Sambre Chemin n°14bis Rue des Haies</desc>
<link href="https://chemins.be/moustiersursambre/chemin/14bis"/><trkseg>
<trkpt lat="50.463058" lon="4.678745"><time>2026-05-07T22:19:14Z</time></trkpt>
<trkpt lat="50.462077" lon="4.679189"><time>2026-05-07T22:29:14Z</time></trkpt>
</trkseg>
</trk>
<trk>
<name>njmms15</name>
<cmt>r</cmt>
<desc>Moustier-sur-Sambre Chemin n°15 Rue des Nobles / Place de Moustier / Rue du Chapître</desc>
<link href="https://chemins.be/moustiersursambre/chemin/15"/><trkseg>
<trkpt lat="50.465187" lon="4.695689"><time>2026-05-07T22:19:14Z</time></trkpt>
<trkpt lat="50.465157" lon="4.696914"><time>2026-05-07T22:29:14Z</time></trkpt>
<trkpt lat="50.465156" lon="4.697379"><time>2026-05-07T22:39:14Z</time></trkpt>
<trkpt lat="50.465343" lon="4.698000"><time>2026-05-07T22:49:14Z</time></trkpt>
<trkpt lat="50.466187" lon="4.698344"><time>2026-05-07T22:59:14Z</time></trkpt>
<trkpt lat="50.466253" lon="4.697246"><time>2026-05-07T23:09:14Z</time></trkpt>
<trkpt lat="50.465768" lon="4.696961"><time>2026-05-07T23:19:14Z</time></trkpt>
<trkpt lat="50.465337" lon="4.696930"><time>2026-05-07T23:29:14Z</time></trkpt>
</trkseg>
</trk>
<trk>
<name>njmms16</name>
<cmt>r</cmt>
<desc>Moustier-sur-Sambre Chemin n°16 Place de Moustier</desc>
<link href="https://chemins.be/moustiersursambre/chemin/16"/><trkseg>
<trkpt lat="50.465324" lon="4.698085"><time>2026-05-07T22:19:14Z</time></trkpt>
<trkpt lat="50.465222" lon="4.699380"><time>2026-05-07T22:29:14Z</time></trkpt>
</trkseg>
</trk>
<trk>
<name>njmms17</name>
<cmt>r</cmt>
<desc>Moustier-sur-Sambre Chemin n°17 Rue des Nobles</desc>
<link href="https://chemins.be/moustiersursambre/chemin/17"/><trkseg>
<trkpt lat="50.465039" lon="4.697308"><time>2026-05-07T22:19:14Z</time></trkpt>
<trkpt lat="50.462667" lon="4.696784"><time>2026-05-07T22:29:14Z</time></trkpt>
<trkpt lat="50.461039" lon="4.696942"><time>2026-05-07T22:39:14Z</time></trkpt>
</trkseg>
</trk>
<trk>
<name>njmms18</name>
<cmt>r</cmt>
<desc>Moustier-sur-Sambre Chemin n°18 Chemin des Dames</desc>
<link href="https://chemins.be/moustiersursambre/chemin/18"/><trkseg>
<trkpt lat="50.462499" lon="4.695713"><time>2026-05-07T22:19:14Z</time></trkpt>
<trkpt lat="50.462649" lon="4.696728"><time>2026-05-07T22:29:14Z</time></trkpt>
</trkseg>
</trk>
<trk>
<name>njmms19</name>
<cmt>d</cmt>
<desc>Moustier-sur-Sambre Chemin n°19 </desc>
<link href="https://chemins.be/moustiersursambre/chemin/19"/><trkseg>
<trkpt lat="50.460409" lon="4.697069"><time>2026-05-07T22:19:14Z</time></trkpt>
<trkpt lat="50.460437" lon="4.697899"><time>2026-05-07T22:29:14Z</time></trkpt>
<trkpt lat="50.460651" lon="4.698285"><time>2026-05-07T22:39:14Z</time></trkpt>
</trkseg>
</trk>
<trk>
<name>njmms2</name>
<cmt>r</cmt>
<desc>Moustier-sur-Sambre Chemin n°2 Rue de Spy</desc>
<link href="https://chemins.be/moustiersursambre/chemin/2"/><trkseg>
<trkpt lat="50.467088" lon="4.697576"><time>2026-05-07T22:19:14Z</time></trkpt>
<trkpt lat="50.467459" lon="4.696663"><time>2026-05-07T22:29:14Z</time></trkpt>
<trkpt lat="50.468123" lon="4.697273"><time>2026-05-07T22:39:14Z</time></trkpt>
<trkpt lat="50.469369" lon="4.698535"><time>2026-05-07T22:49:14Z</time></trkpt>
<trkpt lat="50.469995" lon="4.699582"><time>2026-05-07T22:59:14Z</time></trkpt>
</trkseg>
</trk>
<trk>
<name>njmms20</name>
<cmt>v</cmt>
<desc>Moustier-sur-Sambre Chemin n°20 </desc>
<link href="https://chemins.be/moustiersursambre/chemin/20"/><trkseg>
<trkpt lat="50.467115" lon="4.697689"><time>2026-05-07T22:19:14Z</time></trkpt>
<trkpt lat="50.467410" lon="4.698099"><time>2026-05-07T22:29:14Z</time></trkpt>
<trkpt lat="50.467931" lon="4.698201"><time>2026-05-07T22:39:14Z</time></trkpt>
<trkpt lat="50.468622" lon="4.698741"><time>2026-05-07T22:49:14Z</time></trkpt>
<trkpt lat="50.469428" lon="4.699818"><time>2026-05-07T22:59:14Z</time></trkpt>
</trkseg>
</trk>
<trk>
<name>njmms21</name>
<cmt>r</cmt>
<desc>Moustier-sur-Sambre Chemin n°21 Rue de la Fabrique / Rue de la Gendarmerie</desc>
<link href="https://chemins.be/moustiersursambre/chemin/21"/><trkseg>
<trkpt lat="50.456875" lon="4.694407"><time>2026-05-07T22:19:14Z</time></trkpt>
<trkpt lat="50.457176" lon="4.692831"><time>2026-05-07T22:29:14Z</time></trkpt>
<trkpt lat="50.457568" lon="4.691031"><time>2026-05-07T22:39:14Z</time></trkpt>
<trkpt lat="50.457100" lon="4.690873"><time>2026-05-07T22:49:14Z</time></trkpt>
<trkpt lat="50.456245" lon="4.691360"><time>2026-05-07T22:59:14Z</time></trkpt>
<trkpt lat="50.455284" lon="4.690974"><time>2026-05-07T23:09:14Z</time></trkpt>
<trkpt lat="50.454529" lon="4.691095"><time>2026-05-07T23:19:14Z</time></trkpt>
<trkpt lat="50.453053" lon="4.691662"><time>2026-05-07T23:29:14Z</time></trkpt>
<trkpt lat="50.452889" lon="4.692337"><time>2026-05-07T23:39:14Z</time></trkpt>
<trkpt lat="50.452265" lon="4.694749"><time>2026-05-07T23:49:14Z</time></trkpt>
</trkseg>
</trk>
<trk>
<name>njmms21bis</name>
<cmt>s</cmt>
<desc>Moustier-sur-Sambre Chemin n°21bis </desc>
<link href="https://chemins.be/moustiersursambre/chemin/21bis"/><trkseg>
<trkpt lat="50.448058" lon="4.686827"><time>2026-05-07T22:19:14Z</time></trkpt>
<trkpt lat="50.447211" lon="4.687497"><time>2026-05-07T22:29:14Z</time></trkpt>
</trkseg>
</trk>
<trk>
<name>njmms22</name>
<cmt>s</cmt>
<desc>Moustier-sur-Sambre Chemin n°22 </desc>
<link href="https://chemins.be/moustiersursambre/chemin/22"/><trkseg>
<trkpt lat="50.450046" lon="4.686418"><time>2026-05-07T22:19:14Z</time></trkpt>
<trkpt lat="50.450655" lon="4.687436"><time>2026-05-07T22:29:14Z</time></trkpt>
<trkpt lat="50.453098" lon="4.691621"><time>2026-05-07T22:39:14Z</time></trkpt>
</trkseg>
</trk>
<trk>
<name>njmms23</name>
<cmt>r</cmt>
<desc>Moustier-sur-Sambre Chemin n°23 Rue de la Fabrique</desc>
<link href="https://chemins.be/moustiersursambre/chemin/23"/><trkseg>
<trkpt lat="50.454520" lon="4.691053"><time>2026-05-07T22:19:14Z</time></trkpt>
<trkpt lat="50.451765" lon="4.686021"><time>2026-05-07T22:29:14Z</time></trkpt>
</trkseg>
</trk>
<trk>
<name>njmms24</name>
<cmt>r</cmt>
<desc>Moustier-sur-Sambre Chemin n°24 Rue des Résidences</desc>
<link href="https://chemins.be/moustiersursambre/chemin/24"/><trkseg>
<trkpt lat="50.457640" lon="4.690961"><time>2026-05-07T22:19:14Z</time></trkpt>
<trkpt lat="50.457766" lon="4.690624"><time>2026-05-07T22:29:14Z</time></trkpt>
<trkpt lat="50.454599" lon="4.684942"><time>2026-05-07T22:39:14Z</time></trkpt>
</trkseg>
</trk>
<trk>
<name>njmms25</name>
<cmt>r</cmt>
<desc>Moustier-sur-Sambre Chemin n°25 Rue du Clair Chêne</desc>
<link href="https://chemins.be/moustiersursambre/chemin/25"/><trkseg>
<trkpt lat="50.456183" lon="4.684572"><time>2026-05-07T22:19:14Z</time></trkpt>
<trkpt lat="50.458688" lon="4.688997"><time>2026-05-07T22:29:14Z</time></trkpt>
</trkseg>
</trk>
<trk>
<name>njmms25bis</name>
<cmt>b</cmt>
<desc>Moustier-sur-Sambre Sentier n°25bis </desc>
<link href="https://chemins.be/moustiersursambre/sentier/25bis"/><trkseg>
<trkpt lat="50.447951" lon="4.686573"><time>2026-05-07T22:19:14Z</time></trkpt>
<trkpt lat="50.447555" lon="4.686922"><time>2026-05-07T22:29:14Z</time></trkpt>
<trkpt lat="50.445898" lon="4.687798"><time>2026-05-07T22:39:14Z</time></trkpt>
<trkpt lat="50.445251" lon="4.687681"><time>2026-05-07T22:49:14Z</time></trkpt>
</trkseg>
</trk>
<trk>
<name>njmms26</name>
<cmt>d</cmt>
<desc>Moustier-sur-Sambre Sentier n°26 </desc>
<link href="https://chemins.be/moustiersursambre/sentier/26"/><trkseg>
<trkpt lat="50.457648" lon="4.691159"><time>2026-05-07T22:19:14Z</time></trkpt>
<trkpt lat="50.458599" lon="4.691996"><time>2026-05-07T22:29:14Z</time></trkpt>
<trkpt lat="50.459110" lon="4.692295"><time>2026-05-07T22:39:14Z</time></trkpt>
<trkpt lat="50.460061" lon="4.693175"><time>2026-05-07T22:49:14Z</time></trkpt>
<trkpt lat="50.460068" lon="4.693682"><time>2026-05-07T22:59:14Z</time></trkpt>
<trkpt lat="50.460984" lon="4.694097"><time>2026-05-07T23:09:14Z</time></trkpt>
<trkpt lat="50.461155" lon="4.694225"><time>2026-05-07T23:19:14Z</time></trkpt>
<trkpt lat="50.462167" lon="4.695654"><time>2026-05-07T23:29:14Z</time></trkpt>
</trkseg>
</trk>
<trk>
<name>njmms27</name>
<cmt>d</cmt>
<desc>Moustier-sur-Sambre Sentier n°27 </desc>
<link href="https://chemins.be/moustiersursambre/sentier/27"/><trkseg>
<trkpt lat="50.463955" lon="4.682976"><time>2026-05-07T22:19:14Z</time></trkpt>
<trkpt lat="50.463212" lon="4.684943"><time>2026-05-07T22:29:14Z</time></trkpt>
</trkseg></trk>
<trk>
<name>njmms27</name>
<cmt>v</cmt>
<desc>Moustier-sur-Sambre Sentier n°27 </desc>
<link href="https://chemins.be/moustiersursambre/sentier/27"/><trkseg>
<trkpt lat="50.463212" lon="4.684943"><time>2026-05-07T22:29:14Z</time></trkpt>
<trkpt lat="50.463112" lon="4.685266"><time>2026-05-07T22:39:14Z</time></trkpt>
</trkseg></trk>
<trk>
<name>njmms27</name>
<cmt>d</cmt>
<desc>Moustier-sur-Sambre Sentier n°27 </desc>
<link href="https://chemins.be/moustiersursambre/sentier/27"/><trkseg>
<trkpt lat="50.463112" lon="4.685266"><time>2026-05-07T22:39:14Z</time></trkpt>
<trkpt lat="50.461358" lon="4.690561"><time>2026-05-07T22:49:14Z</time></trkpt>
</trkseg></trk>
<trk>
<name>njmms27</name>
<cmt>s</cmt>
<desc>Moustier-sur-Sambre Sentier n°27 </desc>
<link href="https://chemins.be/moustiersursambre/sentier/27"/><trkseg>
<trkpt lat="50.461358" lon="4.690561"><time>2026-05-07T22:49:14Z</time></trkpt>
<trkpt lat="50.461043" lon="4.691509"><time>2026-05-07T22:59:14Z</time></trkpt>
</trkseg></trk>
<trk>
<name>njmms27</name>
<cmt>d</cmt>
<desc>Moustier-sur-Sambre Sentier n°27 </desc>
<link href="https://chemins.be/moustiersursambre/sentier/27"/><trkseg>
<trkpt lat="50.461043" lon="4.691509"><time>2026-05-07T22:59:14Z</time></trkpt>
<trkpt lat="50.460673" lon="4.692714"><time>2026-05-07T23:09:14Z</time></trkpt>
<trkpt lat="50.460104" lon="4.693725"><time>2026-05-07T23:19:14Z</time></trkpt>
<trkpt lat="50.459237" lon="4.695324"><time>2026-05-07T23:29:14Z</time></trkpt>
</trkseg></trk>
<trk>
<name>njmms27</name>
<cmt>q</cmt>
<desc>Moustier-sur-Sambre Sentier n°27 </desc>
<link href="https://chemins.be/moustiersursambre/sentier/27"/><trkseg>
<trkpt lat="50.459237" lon="4.695324"><time>2026-05-07T23:29:14Z</time></trkpt>
<trkpt lat="50.459172" lon="4.695986"><time>2026-05-07T23:39:14Z</time></trkpt>
</trkseg>
</trk>
<trk>
<name>njmms28</name>
<cmt>s</cmt>
<desc>Moustier-sur-Sambre Sentier n°28 </desc>
<link href="https://chemins.be/moustiersursambre/sentier/28"/><trkseg>
<trkpt lat="50.463257" lon="4.684986"><time>2026-05-07T22:19:14Z</time></trkpt>
<trkpt lat="50.463979" lon="4.687103"><time>2026-05-07T22:29:14Z</time></trkpt>
<trkpt lat="50.464021" lon="4.688301"><time>2026-05-07T22:39:14Z</time></trkpt>
<trkpt lat="50.464662" lon="4.690812"><time>2026-05-07T22:49:14Z</time></trkpt>
<trkpt lat="50.464936" lon="4.692321"><time>2026-05-07T22:59:14Z</time></trkpt>
<trkpt lat="50.465212" lon="4.693182"><time>2026-05-07T23:09:14Z</time></trkpt>
<trkpt lat="50.465765" lon="4.694947"><time>2026-05-07T23:19:14Z</time></trkpt>
<trkpt lat="50.465996" lon="4.695667"><time>2026-05-07T23:29:14Z</time></trkpt>
</trkseg>
</trk>
<trk>
<name>njmms29</name>
<cmt>v</cmt>
<desc>Moustier-sur-Sambre Sentier n°29 </desc>
<link href="https://chemins.be/moustiersursambre/sentier/29"/><trkseg>
<trkpt lat="50.466297" lon="4.694401"><time>2026-05-07T22:19:14Z</time></trkpt>
<trkpt lat="50.466099" lon="4.694484"><time>2026-05-07T22:29:14Z</time></trkpt>
</trkseg></trk>
<trk>
<name>njmms29</name>
<cmt>s</cmt>
<desc>Moustier-sur-Sambre Sentier n°29 </desc>
<link href="https://chemins.be/moustiersursambre/sentier/29"/><trkseg>
<trkpt lat="50.466099" lon="4.694484"><time>2026-05-07T22:29:14Z</time></trkpt>
<trkpt lat="50.465287" lon="4.695549"><time>2026-05-07T22:39:14Z</time></trkpt>
</trkseg>
</trk>
<trk>
<name>njmms29bis</name>
<cmt>r</cmt>
<desc>Moustier-sur-Sambre Chemin n°29bis Rue de Moustier / Rue Bois-Bellin</desc>
<link href="https://chemins.be/moustiersursambre/chemin/29bis"/><trkseg>
<trkpt lat="50.466718" lon="4.694826"><time>2026-05-07T22:19:14Z</time></trkpt>
<trkpt lat="50.467377" lon="4.693944"><time>2026-05-07T22:29:14Z</time></trkpt>
<trkpt lat="50.467666" lon="4.693326"><time>2026-05-07T22:39:14Z</time></trkpt>
<trkpt lat="50.467785" lon="4.692791"><time>2026-05-07T22:49:14Z</time></trkpt>
<trkpt lat="50.467760" lon="4.692129"><time>2026-05-07T22:59:14Z</time></trkpt>
</trkseg>
</trk>
<trk>
<name>njmms3</name>
<cmt>r</cmt>
<desc>Moustier-sur-Sambre Chemin n°3 Rue de la Station / ? / Rue de le Glacerie</desc>
<link href="https://chemins.be/moustiersursambre/chemin/3"/><trkseg>
<trkpt lat="50.466397" lon="4.697064"><time>2026-05-07T22:19:14Z</time></trkpt>
<trkpt lat="50.466356" lon="4.695810"><time>2026-05-07T22:29:14Z</time></trkpt>
<trkpt lat="50.465251" lon="4.695577"><time>2026-05-07T22:39:14Z</time></trkpt>
<trkpt lat="50.463084" lon="4.695534"><time>2026-05-07T22:49:14Z</time></trkpt>
<trkpt lat="50.461043" lon="4.695773"><time>2026-05-07T22:59:14Z</time></trkpt>
<trkpt lat="50.460385" lon="4.696121"><time>2026-05-07T23:09:14Z</time></trkpt>
<trkpt lat="50.458696" lon="4.695954"><time>2026-05-07T23:19:14Z</time></trkpt>
<trkpt lat="50.457844" lon="4.695089"><time>2026-05-07T23:29:14Z</time></trkpt>
<trkpt lat="50.457459" lon="4.694594"><time>2026-05-07T23:39:14Z</time></trkpt>
<trkpt lat="50.456973" lon="4.694492"><time>2026-05-07T23:49:14Z</time></trkpt>
<trkpt lat="50.456037" lon="4.694950"><time>2026-05-07T23:59:14Z</time></trkpt>
<trkpt lat="50.454508" lon="4.695209"><time>2026-05-08T00:09:14Z</time></trkpt>
<trkpt lat="50.454303" lon="4.695380"><time>2026-05-08T00:19:14Z</time></trkpt>
<trkpt lat="50.453159" lon="4.695310"><time>2026-05-08T00:29:14Z</time></trkpt>
</trkseg></trk>
<trk>
<name>njmms3</name>
<cmt>v</cmt>
<desc>Moustier-sur-Sambre Chemin n°3 Rue de la Station / ? / Rue de le Glacerie</desc>
<link href="https://chemins.be/moustiersursambre/chemin/3"/><trkseg>
<trkpt lat="50.453159" lon="4.695310"><time>2026-05-08T00:29:14Z</time></trkpt>
<trkpt lat="50.452773" lon="4.695265"><time>2026-05-08T00:39:14Z</time></trkpt>
</trkseg></trk>
<trk>
<name>njmms3</name>
<cmt>r</cmt>
<desc>Moustier-sur-Sambre Chemin n°3 Rue de la Station / ? / Rue de le Glacerie</desc>
<link href="https://chemins.be/moustiersursambre/chemin/3"/><trkseg>
<trkpt lat="50.452773" lon="4.695265"><time>2026-05-08T00:39:14Z</time></trkpt>
<trkpt lat="50.452244" lon="4.694670"><time>2026-05-08T00:49:14Z</time></trkpt>
<trkpt lat="50.451421" lon="4.693045"><time>2026-05-08T00:59:14Z</time></trkpt>
<trkpt lat="50.449668" lon="4.689865"><time>2026-05-08T01:09:14Z</time></trkpt>
<trkpt lat="50.448085" lon="4.686855"><time>2026-05-08T01:19:14Z</time></trkpt>
</trkseg></trk>
<trk>
<name>njmms3</name>
<cmt>s</cmt>
<desc>Moustier-sur-Sambre Chemin n°3 Rue de la Station / ? / Rue de le Glacerie</desc>
<link href="https://chemins.be/moustiersursambre/chemin/3"/><trkseg>
<trkpt lat="50.448085" lon="4.686855"><time>2026-05-08T01:19:14Z</time></trkpt>
<trkpt lat="50.447518" lon="4.683684"><time>2026-05-08T01:29:14Z</time></trkpt>
<trkpt lat="50.447891" lon="4.682123"><time>2026-05-08T01:39:14Z</time></trkpt>
<trkpt lat="50.447488" lon="4.681614"><time>2026-05-08T01:49:14Z</time></trkpt>
<trkpt lat="50.446535" lon="4.681621"><time>2026-05-08T01:59:14Z</time></trkpt>
<trkpt lat="50.446302" lon="4.681310"><time>2026-05-08T02:09:14Z</time></trkpt>
</trkseg>
</trk>
<trk>
<name>njmms30</name>
<cmt>s</cmt>
<desc>Moustier-sur-Sambre Sentier n°30 </desc>
<link href="https://chemins.be/moustiersursambre/sentier/30"/><trkseg>
<trkpt lat="50.467117" lon="4.700027"><time>2026-05-07T22:19:14Z</time></trkpt>
<trkpt lat="50.466425" lon="4.699783"><time>2026-05-07T22:29:14Z</time></trkpt>
<trkpt lat="50.466366" lon="4.698627"><time>2026-05-07T22:39:14Z</time></trkpt>
</trkseg>
</trk>
<trk>
<name>njmms31</name>
<cmt>v</cmt>
<desc>Moustier-sur-Sambre Sentier n°31 </desc>
<link href="https://chemins.be/moustiersursambre/sentier/31"/><trkseg>
<trkpt lat="50.465513" lon="4.691804"><time>2026-05-07T22:19:14Z</time></trkpt>
<trkpt lat="50.464936" lon="4.692265"><time>2026-05-07T22:29:14Z</time></trkpt>
<trkpt lat="50.464548" lon="4.692966"><time>2026-05-07T22:39:14Z</time></trkpt>
<trkpt lat="50.463159" lon="4.694408"><time>2026-05-07T22:49:14Z</time></trkpt>
</trkseg>
</trk>
<trk>
<name>njmms32</name>
<cmt>r</cmt>
<desc>Moustier-sur-Sambre Sentier n°32 Rue des Bouchers</desc>
<link href="https://chemins.be/moustiersursambre/sentier/32"/><trkseg>
<trkpt lat="50.467460" lon="4.696508"><time>2026-05-07T22:19:14Z</time></trkpt>
<trkpt lat="50.466655" lon="4.694925"><time>2026-05-07T22:29:14Z</time></trkpt>
</trkseg>
</trk>
<trk>
<name>njmms33</name>
<cmt>v</cmt>
<desc>Moustier-sur-Sambre Sentier n°33 </desc>
<link href="https://chemins.be/moustiersursambre/sentier/33"/><trkseg>
<trkpt lat="50.467715" lon="4.692143"><time>2026-05-07T22:19:14Z</time></trkpt>
<trkpt lat="50.467907" lon="4.690820"><time>2026-05-07T22:29:14Z</time></trkpt>
<trkpt lat="50.467533" lon="4.689367"><time>2026-05-07T22:39:14Z</time></trkpt>
</trkseg>
</trk>
<trk>
<name>njmms34</name>
<cmt>s</cmt>
<desc>Moustier-sur-Sambre Sentier n°34 Route de la Basse Sambre</desc>
<link href="https://chemins.be/moustiersursambre/sentier/34"/><trkseg>
<trkpt lat="50.469356" lon="4.699789"><time>2026-05-07T22:19:14Z</time></trkpt>
<trkpt lat="50.468079" lon="4.700034"><time>2026-05-07T22:29:14Z</time></trkpt>
<trkpt lat="50.467754" lon="4.700538"><time>2026-05-07T22:39:14Z</time></trkpt>
<trkpt lat="50.467188" lon="4.700337"><time>2026-05-07T22:49:14Z</time></trkpt>
</trkseg></trk>
<trk>
<name>njmms34</name>
<cmt>b</cmt>
<desc>Moustier-sur-Sambre Sentier n°34 Route de la Basse Sambre</desc>
<link href="https://chemins.be/moustiersursambre/sentier/34"/><trkseg>
<trkpt lat="50.467188" lon="4.700337"><time>2026-05-07T22:49:14Z</time></trkpt>
<trkpt lat="50.466460" lon="4.700135"><time>2026-05-07T22:59:14Z</time></trkpt>
</trkseg></trk>
<trk>
<name>njmms34</name>
<cmt>d</cmt>
<desc>Moustier-sur-Sambre Sentier n°34 Route de la Basse Sambre</desc>
<link href="https://chemins.be/moustiersursambre/sentier/34"/><trkseg>
<trkpt lat="50.466460" lon="4.700135"><time>2026-05-07T22:59:14Z</time></trkpt>
<trkpt lat="50.465167" lon="4.699746"><time>2026-05-07T23:09:14Z</time></trkpt>
<trkpt lat="50.464052" lon="4.699695"><time>2026-05-07T23:19:14Z</time></trkpt>
<trkpt lat="50.462578" lon="4.699615"><time>2026-05-07T23:29:14Z</time></trkpt>
<trkpt lat="50.461877" lon="4.699539"><time>2026-05-07T23:39:14Z</time></trkpt>
<trkpt lat="50.460987" lon="4.699561"><time>2026-05-07T23:49:14Z</time></trkpt>
<trkpt lat="50.459971" lon="4.699512"><time>2026-05-07T23:59:14Z</time></trkpt>
<trkpt lat="50.458782" lon="4.700180"><time>2026-05-08T00:09:14Z</time></trkpt>
</trkseg>
</trk>
<trk>
<name>njmms35</name>
<cmt>s</cmt>
<desc>Moustier-sur-Sambre Sentier n°35 </desc>
<link href="https://chemins.be/moustiersursambre/sentier/35"/><trkseg>
<trkpt lat="50.467586" lon="4.705819"><time>2026-05-07T22:19:14Z</time></trkpt>
<trkpt lat="50.465157" lon="4.699900"><time>2026-05-07T22:29:14Z</time></trkpt>
</trkseg>
</trk>
<trk>
<name>njmms35bis</name>
<cmt>d</cmt>
<desc>Moustier-sur-Sambre Sentier n°35bis </desc>
<link href="https://chemins.be/moustiersursambre/sentier/35bis"/><trkseg>
<trkpt lat="50.465462" lon="4.677423"><time>2026-05-07T22:19:14Z</time></trkpt>
<trkpt lat="50.465776" lon="4.677678"><time>2026-05-07T22:29:14Z</time></trkpt>
<trkpt lat="50.466897" lon="4.678643"><time>2026-05-07T22:39:14Z</time></trkpt>
<trkpt lat="50.467980" lon="4.680510"><time>2026-05-07T22:49:14Z</time></trkpt>
</trkseg>
</trk>
<trk>
<name>njmms36</name>
<cmt>v</cmt>
<desc>Moustier-sur-Sambre Sentier n°36 Rue d'Ordin</desc>
<link href="https://chemins.be/moustiersursambre/sentier/36"/><trkseg>
<trkpt lat="50.463973" lon="4.705371"><time>2026-05-07T22:19:14Z</time></trkpt>
<trkpt lat="50.464185" lon="4.703570"><time>2026-05-07T22:29:14Z</time></trkpt>
<trkpt lat="50.464668" lon="4.701263"><time>2026-05-07T22:39:14Z</time></trkpt>
</trkseg></trk>
<trk>
<name>njmms36</name>
<cmt>r</cmt>
<desc>Moustier-sur-Sambre Sentier n°36 Rue d'Ordin</desc>
<link href="https://chemins.be/moustiersursambre/sentier/36"/><trkseg>
<trkpt lat="50.464668" lon="4.701263"><time>2026-05-07T22:39:14Z</time></trkpt>
<trkpt lat="50.465019" lon="4.701294"><time>2026-05-07T22:49:14Z</time></trkpt>
<trkpt lat="50.465139" lon="4.699957"><time>2026-05-07T22:59:14Z</time></trkpt>
<trkpt lat="50.465213" lon="4.699366"><time>2026-05-07T23:09:14Z</time></trkpt>
</trkseg>
</trk>
<trk>
<name>njmms37</name>
<cmt>v</cmt>
<desc>Moustier-sur-Sambre Sentier n°37 </desc>
<link href="https://chemins.be/moustiersursambre/sentier/37"/><trkseg>
<trkpt lat="50.463623" lon="4.705228"><time>2026-05-07T22:19:14Z</time></trkpt>
<trkpt lat="50.463573" lon="4.703608"><time>2026-05-07T22:29:14Z</time></trkpt>
<trkpt lat="50.463024" lon="4.700900"><time>2026-05-07T22:39:14Z</time></trkpt>
<trkpt lat="50.462693" lon="4.700418"><time>2026-05-07T22:49:14Z</time></trkpt>
<trkpt lat="50.461804" lon="4.699947"><time>2026-05-07T22:59:14Z</time></trkpt>
<trkpt lat="50.461561" lon="4.699847"><time>2026-05-07T23:09:14Z</time></trkpt>
<trkpt lat="50.460599" lon="4.699869"><time>2026-05-07T23:19:14Z</time></trkpt>
</trkseg></trk>
<trk>
<name>njmms37</name>
<cmt>d</cmt>
<desc>Moustier-sur-Sambre Sentier n°37 </desc>
<link href="https://chemins.be/moustiersursambre/sentier/37"/><trkseg>
<trkpt lat="50.460599" lon="4.699869"><time>2026-05-07T23:19:14Z</time></trkpt>
<trkpt lat="50.459935" lon="4.699540"><time>2026-05-07T23:29:14Z</time></trkpt>
</trkseg></trk>
<trk>
<name>njmms37</name>
<cmt>s</cmt>
<desc>Moustier-sur-Sambre Sentier n°37 </desc>
<link href="https://chemins.be/moustiersursambre/sentier/37"/><trkseg>
<trkpt lat="50.459935" lon="4.699540"><time>2026-05-07T23:29:14Z</time></trkpt>
<trkpt lat="50.459513" lon="4.699312"><time>2026-05-07T23:39:14Z</time></trkpt>
<trkpt lat="50.458574" lon="4.697657"><time>2026-05-07T23:49:14Z</time></trkpt>
</trkseg>
</trk>
<trk>
<name>njmms38</name>
<cmt>v</cmt>
<desc>Moustier-sur-Sambre Sentier n°38 </desc>
<link href="https://chemins.be/moustiersursambre/sentier/38"/><trkseg>
<trkpt lat="50.460374" lon="4.683966"><time>2026-05-07T22:19:14Z</time></trkpt>
<trkpt lat="50.460539" lon="4.682615"><time>2026-05-07T22:29:14Z</time></trkpt>
</trkseg></trk>
<trk>
<name>njmms38</name>
<cmt>s</cmt>
<desc>Moustier-sur-Sambre Sentier n°38 </desc>
<link href="https://chemins.be/moustiersursambre/sentier/38"/><trkseg>
<trkpt lat="50.460539" lon="4.682615"><time>2026-05-07T22:29:14Z</time></trkpt>
<trkpt lat="50.460891" lon="4.682238"><time>2026-05-07T22:39:14Z</time></trkpt>
</trkseg></trk>
<trk>
<name>njmms38</name>
<cmt>d</cmt>
<desc>Moustier-sur-Sambre Sentier n°38 </desc>
<link href="https://chemins.be/moustiersursambre/sentier/38"/><trkseg>
<trkpt lat="50.460891" lon="4.682238"><time>2026-05-07T22:39:14Z</time></trkpt>
<trkpt lat="50.462503" lon="4.681248"><time>2026-05-07T22:49:14Z</time></trkpt>
</trkseg>
</trk>
<trk>
<name>njmms39</name>
<cmt>s</cmt>
<desc>Moustier-sur-Sambre Sentier n°39 </desc>
<link href="https://chemins.be/moustiersursambre/sentier/39"/><trkseg>
<trkpt lat="50.463147" lon="4.675647"><time>2026-05-07T22:19:14Z</time></trkpt>
<trkpt lat="50.462931" lon="4.675688"><time>2026-05-07T22:29:14Z</time></trkpt>
<trkpt lat="50.462581" lon="4.675770"><time>2026-05-07T22:39:14Z</time></trkpt>
<trkpt lat="50.462347" lon="4.675825"><time>2026-05-07T22:49:14Z</time></trkpt>
<trkpt lat="50.462112" lon="4.676260"><time>2026-05-07T22:59:14Z</time></trkpt>
<trkpt lat="50.462173" lon="4.676838"><time>2026-05-07T23:09:14Z</time></trkpt>
<trkpt lat="50.462270" lon="4.677613"><time>2026-05-07T23:19:14Z</time></trkpt>
</trkseg>
</trk>
<trk>
<name>njmms4</name>
<cmt>r</cmt>
<desc>Moustier-sur-Sambre Chemin n°4 Rue de Jemeppe</desc>
<link href="https://chemins.be/moustiersursambre/chemin/4"/><trkseg>
<trkpt lat="50.466410" lon="4.695599"><time>2026-05-07T22:19:14Z</time></trkpt>
<trkpt lat="50.466538" lon="4.694811"><time>2026-05-07T22:29:14Z</time></trkpt>
<trkpt lat="50.465523" lon="4.691424"><time>2026-05-07T22:39:14Z</time></trkpt>
<trkpt lat="50.465509" lon="4.690057"><time>2026-05-07T22:49:14Z</time></trkpt>
<trkpt lat="50.465549" lon="4.685367"><time>2026-05-07T22:59:14Z</time></trkpt>
<trkpt lat="50.464478" lon="4.682219"><time>2026-05-07T23:09:14Z</time></trkpt>
<trkpt lat="50.463932" lon="4.681553"><time>2026-05-07T23:19:14Z</time></trkpt>
<trkpt lat="50.463148" lon="4.678689"><time>2026-05-07T23:29:14Z</time></trkpt>
<trkpt lat="50.463178" lon="4.677464"><time>2026-05-07T23:39:14Z</time></trkpt>
<trkpt lat="50.463701" lon="4.676960"><time>2026-05-07T23:49:14Z</time></trkpt>
<trkpt lat="50.464286" lon="4.676781"><time>2026-05-07T23:59:14Z</time></trkpt>
<trkpt lat="50.464590" lon="4.674163"><time>2026-05-08T00:09:14Z</time></trkpt>
<trkpt lat="50.464195" lon="4.673935"><time>2026-05-08T00:19:14Z</time></trkpt>
</trkseg>
</trk>
<trk>
<name>njmms40</name>
<cmt>v</cmt>
<desc>Moustier-sur-Sambre Sentier n°40 </desc>
<link href="https://chemins.be/moustiersursambre/sentier/40"/><trkseg>
<trkpt lat="50.463505" lon="4.679818"><time>2026-05-07T22:19:14Z</time></trkpt>
<trkpt lat="50.464179" lon="4.679682"><time>2026-05-07T22:29:14Z</time></trkpt>
<trkpt lat="50.464646" lon="4.679882"><time>2026-05-07T22:39:14Z</time></trkpt>
<trkpt lat="50.464701" lon="4.679671"><time>2026-05-07T22:49:14Z</time></trkpt>
</trkseg></trk>
<trk>
<name>njmms40</name>
<cmt>b</cmt>
<desc>Moustier-sur-Sambre Sentier n°40 </desc>
<link href="https://chemins.be/moustiersursambre/sentier/40"/><trkseg>
<trkpt lat="50.464701" lon="4.679671"><time>2026-05-07T22:49:14Z</time></trkpt>
<trkpt lat="50.465006" lon="4.679800"><time>2026-05-07T22:59:14Z</time></trkpt>
<trkpt lat="50.465544" lon="4.680578"><time>2026-05-07T23:09:14Z</time></trkpt>
</trkseg>
</trk>
<trk>
<name>njmms41</name>
<cmt>v</cmt>
<desc>Moustier-sur-Sambre Sentier n°41 </desc>
<link href="https://chemins.be/moustiersursambre/sentier/41"/><trkseg>
<trkpt lat="50.463620" lon="4.676932"><time>2026-05-07T22:19:14Z</time></trkpt>
<trkpt lat="50.463468" lon="4.676818"><time>2026-05-07T22:29:14Z</time></trkpt>
</trkseg></trk>
<trk>
<name>njmms41</name>
<cmt>s</cmt>
<desc>Moustier-sur-Sambre Sentier n°41 </desc>
<link href="https://chemins.be/moustiersursambre/sentier/41"/><trkseg>
<trkpt lat="50.463468" lon="4.676818"><time>2026-05-07T22:29:14Z</time></trkpt>
<trkpt lat="50.463423" lon="4.676761"><time>2026-05-07T22:39:14Z</time></trkpt>
<trkpt lat="50.463171" lon="4.676774"><time>2026-05-07T22:49:14Z</time></trkpt>
</trkseg>
</trk>
<trk>
<name>njmms42</name>
<cmt>v</cmt>
<desc>Moustier-sur-Sambre Sentier n°42 Rue des Prairies</desc>
<link href="https://chemins.be/moustiersursambre/sentier/42"/><trkseg>
<trkpt lat="50.462784" lon="4.677123"><time>2026-05-07T22:19:14Z</time></trkpt>
<trkpt lat="50.463126" lon="4.676745"><time>2026-05-07T22:29:14Z</time></trkpt>
<trkpt lat="50.463183" lon="4.675605"><time>2026-05-07T22:39:14Z</time></trkpt>
<trkpt lat="50.463564" lon="4.675312"><time>2026-05-07T22:49:14Z</time></trkpt>
<trkpt lat="50.464174" lon="4.673985"><time>2026-05-07T22:59:14Z</time></trkpt>
</trkseg>
</trk>
<trk>
<name>njmms43</name>
<cmt>s</cmt>
<desc>Moustier-sur-Sambre Sentier n°43 </desc>
<link href="https://chemins.be/moustiersursambre/sentier/43"/><trkseg>
<trkpt lat="50.464599" lon="4.674135"><time>2026-05-07T22:19:14Z</time></trkpt>
<trkpt lat="50.465666" lon="4.675128"><time>2026-05-07T22:29:14Z</time></trkpt>
</trkseg>
</trk>
<trk>
<name>njmms44</name>
<cmt>s</cmt>
<desc>Moustier-sur-Sambre Sentier n°44 </desc>
<link href="https://chemins.be/moustiersursambre/sentier/44"/><trkseg>
<trkpt lat="50.464635" lon="4.674121"><time>2026-05-07T22:19:14Z</time></trkpt>
<trkpt lat="50.466065" lon="4.673722"><time>2026-05-07T22:29:14Z</time></trkpt>
</trkseg>
</trk>
<trk>
<name>njmms45</name>
<cmt>d</cmt>
<desc>Moustier-sur-Sambre Sentier n°45 </desc>
<link href="https://chemins.be/moustiersursambre/sentier/45"/><trkseg>
<trkpt lat="50.465598" lon="4.676846"><time>2026-05-07T22:19:14Z</time></trkpt>
<trkpt lat="50.465666" lon="4.675142"><time>2026-05-07T22:29:14Z</time></trkpt>
<trkpt lat="50.466083" lon="4.673722"><time>2026-05-07T22:39:14Z</time></trkpt>
</trkseg>
</trk>
<trk>
<name>njmms46</name>
<cmt>d</cmt>
<desc>Moustier-sur-Sambre Sentier n°46 </desc>
<link href="https://chemins.be/moustiersursambre/sentier/46"/><trkseg>
<trkpt lat="50.466912" lon="4.676516"><time>2026-05-07T22:19:14Z</time></trkpt>
<trkpt lat="50.467748" lon="4.676592"><time>2026-05-07T22:29:14Z</time></trkpt>
<trkpt lat="50.469231" lon="4.676729"><time>2026-05-07T22:39:14Z</time></trkpt>
<trkpt lat="50.470266" lon="4.676369"><time>2026-05-07T22:49:14Z</time></trkpt>
<trkpt lat="50.471013" lon="4.675980"><time>2026-05-07T22:59:14Z</time></trkpt>
<trkpt lat="50.471912" lon="4.676140"><time>2026-05-07T23:09:14Z</time></trkpt>
<trkpt lat="50.472009" lon="4.676634"><time>2026-05-07T23:19:14Z</time></trkpt>
</trkseg>
</trk>
<trk>
<name>njmms47</name>
<cmt>s</cmt>
<desc>Moustier-sur-Sambre Sentier n°47 </desc>
<link href="https://chemins.be/moustiersursambre/sentier/47"/><trkseg>
<trkpt lat="50.465295" lon="4.695591"><time>2026-05-07T22:19:14Z</time></trkpt>
<trkpt lat="50.465235" lon="4.694633"><time>2026-05-07T22:29:14Z</time></trkpt>
<trkpt lat="50.465221" lon="4.693295"><time>2026-05-07T22:39:14Z</time></trkpt>
</trkseg>
</trk>
<trk>
<name>njmms48</name>
<cmt>s</cmt>
<desc>Moustier-sur-Sambre Sentier n°48 </desc>
<link href="https://chemins.be/moustiersursambre/sentier/48"/><trkseg>
<trkpt lat="50.468018" lon="4.693061"><time>2026-05-07T22:19:14Z</time></trkpt>
<trkpt lat="50.468161" lon="4.693202"><time>2026-05-07T22:29:14Z</time></trkpt>
<trkpt lat="50.468735" lon="4.693826"><time>2026-05-07T22:39:14Z</time></trkpt>
</trkseg>
</trk>
<trk>
<name>njmms5</name>
<cmt>r</cmt>
<desc>Moustier-sur-Sambre Chemin n°5 Rue du Bois / Rue des Blés</desc>
<link href="https://chemins.be/moustiersursambre/chemin/5"/><trkseg>
<trkpt lat="50.448112" lon="4.686940"><time>2026-05-07T22:19:14Z</time></trkpt>
<trkpt lat="50.451081" lon="4.686172"><time>2026-05-07T22:29:14Z</time></trkpt>
<trkpt lat="50.452107" lon="4.685840"><time>2026-05-07T22:39:14Z</time></trkpt>
<trkpt lat="50.454573" lon="4.684843"><time>2026-05-07T22:49:14Z</time></trkpt>
<trkpt lat="50.456867" lon="4.684295"><time>2026-05-07T22:59:14Z</time></trkpt>
<trkpt lat="50.460078" lon="4.683866"><time>2026-05-07T23:09:14Z</time></trkpt>
<trkpt lat="50.460994" lon="4.684168"><time>2026-05-07T23:19:14Z</time></trkpt>
<trkpt lat="50.461605" lon="4.684369"><time>2026-05-07T23:29:14Z</time></trkpt>
<trkpt lat="50.463082" lon="4.683182"><time>2026-05-07T23:39:14Z</time></trkpt>
<trkpt lat="50.463991" lon="4.682836"><time>2026-05-07T23:49:14Z</time></trkpt>
<trkpt lat="50.464433" lon="4.682219"><time>2026-05-07T23:59:14Z</time></trkpt>
<trkpt lat="50.464381" lon="4.681500"><time>2026-05-08T00:09:14Z</time></trkpt>
<trkpt lat="50.464984" lon="4.681321"><time>2026-05-08T00:19:14Z</time></trkpt>
<trkpt lat="50.465651" lon="4.680593"><time>2026-05-08T00:29:14Z</time></trkpt>
</trkseg></trk>
<trk>
<name>njmms5</name>
<cmt>v</cmt>
<desc>Moustier-sur-Sambre Chemin n°5 Rue du Bois / Rue des Blés</desc>
<link href="https://chemins.be/moustiersursambre/chemin/5"/><trkseg>
<trkpt lat="50.465651" lon="4.680593"><time>2026-05-08T00:29:14Z</time></trkpt>
<trkpt lat="50.466038" lon="4.680652"><time>2026-05-08T00:39:14Z</time></trkpt>
<trkpt lat="50.467116" lon="4.680772"><time>2026-05-08T00:49:14Z</time></trkpt>
<trkpt lat="50.468097" lon="4.680567"><time>2026-05-08T00:59:14Z</time></trkpt>
</trkseg></trk>
<trk>
<name>njmms5</name>
<cmt>d</cmt>
<desc>Moustier-sur-Sambre Chemin n°5 Rue du Bois / Rue des Blés</desc>
<link href="https://chemins.be/moustiersursambre/chemin/5"/><trkseg>
<trkpt lat="50.468097" lon="4.680567"><time>2026-05-08T00:59:14Z</time></trkpt>
<trkpt lat="50.468492" lon="4.680753"><time>2026-05-08T01:09:14Z</time></trkpt>
<trkpt lat="50.468779" lon="4.681121"><time>2026-05-08T01:19:14Z</time></trkpt>
<trkpt lat="50.469146" lon="4.681588"><time>2026-05-08T01:29:14Z</time></trkpt>
<trkpt lat="50.469898" lon="4.682917"><time>2026-05-08T01:39:14Z</time></trkpt>
<trkpt lat="50.470066" lon="4.683608"><time>2026-05-08T01:49:14Z</time></trkpt>
</trkseg></trk>
<trk>
<name>njmms5</name>
<cmt>v</cmt>
<desc>Moustier-sur-Sambre Chemin n°5 Rue du Bois / Rue des Blés</desc>
<link href="https://chemins.be/moustiersursambre/chemin/5"/><trkseg>
<trkpt lat="50.470066" lon="4.683608"><time>2026-05-08T01:49:14Z</time></trkpt>
<trkpt lat="50.470951" lon="4.685784"><time>2026-05-08T01:59:14Z</time></trkpt>
<trkpt lat="50.471998" lon="4.687594"><time>2026-05-08T02:09:14Z</time></trkpt>
</trkseg>
</trk>
<trk>
<name>njmms6</name>
<cmt>r</cmt>
<desc>Moustier-sur-Sambre Chemin n°6 Rue de la Centrale</desc>
<link href="https://chemins.be/moustiersursambre/chemin/6"/><trkseg>
<trkpt lat="50.458695" lon="4.695996"><time>2026-05-07T22:19:14Z</time></trkpt>
<trkpt lat="50.458464" lon="4.698516"><time>2026-05-07T22:29:14Z</time></trkpt>
<trkpt lat="50.458711" lon="4.700137"><time>2026-05-07T22:39:14Z</time></trkpt>
</trkseg>
</trk>
<trk>
<name>njmms7</name>
<cmt>r</cmt>
<desc>Moustier-sur-Sambre Chemin n°7 Rue de la Grotte</desc>
<link href="https://chemins.be/moustiersursambre/chemin/7"/><trkseg>
<trkpt lat="50.474343" lon="4.678180"><time>2026-05-07T22:19:14Z</time></trkpt>
<trkpt lat="50.473860" lon="4.678125"><time>2026-05-07T22:29:14Z</time></trkpt>
<trkpt lat="50.473070" lon="4.679095"><time>2026-05-07T22:39:14Z</time></trkpt>
<trkpt lat="50.471480" lon="4.681475"><time>2026-05-07T22:49:14Z</time></trkpt>
<trkpt lat="50.468640" lon="4.685835"><time>2026-05-07T22:59:14Z</time></trkpt>
<trkpt lat="50.470170" lon="4.683475"><time>2026-05-07T23:09:14Z</time></trkpt>
<trkpt lat="50.468570" lon="4.686115"><time>2026-05-07T23:19:14Z</time></trkpt>
<trkpt lat="50.468320" lon="4.687355"><time>2026-05-07T23:29:14Z</time></trkpt>
<trkpt lat="50.467470" lon="4.689275"><time>2026-05-07T23:39:14Z</time></trkpt>
<trkpt lat="50.466760" lon="4.689815"><time>2026-05-07T23:49:14Z</time></trkpt>
<trkpt lat="50.465600" lon="4.691325"><time>2026-05-07T23:59:14Z</time></trkpt>
</trkseg>
</trk>
<trk>
<name>njmms8</name>
<cmt>v</cmt>
<desc>Moustier-sur-Sambre Chemin n°8 Rue du Calvaire / Rue de Spy / Baty Saint-Augustin / Rue des Mûriers</desc>
<link href="https://chemins.be/moustiersursambre/chemin/8"/><trkseg>
<trkpt lat="50.472042" lon="4.687594"><time>2026-05-07T22:19:14Z</time></trkpt>
<trkpt lat="50.471154" lon="4.689008"><time>2026-05-07T22:29:14Z</time></trkpt>
<trkpt lat="50.470764" lon="4.690298"><time>2026-05-07T22:39:14Z</time></trkpt>
<trkpt lat="50.469992" lon="4.690975"><time>2026-05-07T22:49:14Z</time></trkpt>
<trkpt lat="50.469486" lon="4.691845"><time>2026-05-07T22:59:14Z</time></trkpt>
<trkpt lat="50.469260" lon="4.692322"><time>2026-05-07T23:09:14Z</time></trkpt>
<trkpt lat="50.468943" lon="4.693264"><time>2026-05-07T23:19:14Z</time></trkpt>
</trkseg></trk>
<trk>
<name>njmms8</name>
<cmt>r</cmt>
<desc>Moustier-sur-Sambre Chemin n°8 Rue du Calvaire / Rue de Spy / Baty Saint-Augustin / Rue des Mûriers</desc>
<link href="https://chemins.be/moustiersursambre/chemin/8"/><trkseg>
<trkpt lat="50.468943" lon="4.693264"><time>2026-05-07T23:19:14Z</time></trkpt>
<trkpt lat="50.468209" lon="4.695485"><time>2026-05-07T23:29:14Z</time></trkpt>
<trkpt lat="50.468141" lon="4.697287"><time>2026-05-07T23:39:14Z</time></trkpt>
<trkpt lat="50.469360" lon="4.698606"><time>2026-05-07T23:49:14Z</time></trkpt>
<trkpt lat="50.469699" lon="4.699298"><time>2026-05-07T23:59:14Z</time></trkpt>
</trkseg></trk>
<trk>
<name>njmms8</name>
<cmt>v</cmt>
<desc>Moustier-sur-Sambre Chemin n°8 Rue du Calvaire / Rue de Spy / Baty Saint-Augustin / Rue des Mûriers</desc>
<link href="https://chemins.be/moustiersursambre/chemin/8"/><trkseg>
<trkpt lat="50.469699" lon="4.699298"><time>2026-05-07T23:59:14Z</time></trkpt>
<trkpt lat="50.469473" lon="4.699860"><time>2026-05-08T00:09:14Z</time></trkpt>
<trkpt lat="50.469856" lon="4.701102"><time>2026-05-08T00:19:14Z</time></trkpt>
<trkpt lat="50.469854" lon="4.701849"><time>2026-05-08T00:29:14Z</time></trkpt>
<trkpt lat="50.469635" lon="4.702735"><time>2026-05-08T00:39:14Z</time></trkpt>
<trkpt lat="50.469623" lon="4.703932"><time>2026-05-08T00:49:14Z</time></trkpt>
<trkpt lat="50.469478" lon="4.704354"><time>2026-05-08T00:59:14Z</time></trkpt>
<trkpt lat="50.469339" lon="4.705832"><time>2026-05-08T01:09:14Z</time></trkpt>
<trkpt lat="50.469058" lon="4.706647"><time>2026-05-08T01:19:14Z</time></trkpt>
</trkseg></trk>
<trk>
<name>njmms8</name>
<cmt>r</cmt>
<desc>Moustier-sur-Sambre Chemin n°8 Rue du Calvaire / Rue de Spy / Baty Saint-Augustin / Rue des Mûriers</desc>
<link href="https://chemins.be/moustiersursambre/chemin/8"/><trkseg>
<trkpt lat="50.469058" lon="4.706647"><time>2026-05-08T01:19:14Z</time></trkpt>
<trkpt lat="50.467959" lon="4.707470"><time>2026-05-08T01:29:14Z</time></trkpt>
</trkseg>
</trk>
<trk>
<name>njmms9</name>
<cmt>v</cmt>
<desc>Moustier-sur-Sambre Chemin n°9 </desc>
<link href="https://chemins.be/moustiersursambre/chemin/9"/><trkseg>
<trkpt lat="50.474226" lon="4.677973"><time>2026-05-07T22:19:14Z</time></trkpt>
<trkpt lat="50.473984" lon="4.677619"><time>2026-05-07T22:29:14Z</time></trkpt>
<trkpt lat="50.473599" lon="4.677081"><time>2026-05-07T22:39:14Z</time></trkpt>
<trkpt lat="50.473169" lon="4.676613"><time>2026-05-07T22:49:14Z</time></trkpt>
<trkpt lat="50.472594" lon="4.676286"><time>2026-05-07T22:59:14Z</time></trkpt>
<trkpt lat="50.471262" lon="4.677165"><time>2026-05-07T23:09:14Z</time></trkpt>
<trkpt lat="50.470361" lon="4.677750"><time>2026-05-07T23:19:14Z</time></trkpt>
<trkpt lat="50.469341" lon="4.679166"><time>2026-05-07T23:29:14Z</time></trkpt>
<trkpt lat="50.468773" lon="4.679923"><time>2026-05-07T23:39:14Z</time></trkpt>
<trkpt lat="50.468187" lon="4.680441"><time>2026-05-07T23:49:14Z</time></trkpt>
</trkseg>
</trk>
<trk>
<name>njmmsi1</name>
<cmt>v</cmt>
<desc>Moustier-sur-Sambre Sentier n°i1 </desc>
<link href="https://chemins.be/moustiersursambre/sentier/i1"/><trkseg>
<trkpt lat="50.460572" lon="4.699854"><time>2026-05-07T22:19:14Z</time></trkpt>
<trkpt lat="50.459745" lon="4.699834"><time>2026-05-07T22:29:14Z</time></trkpt>
<trkpt lat="50.459232" lon="4.700239"><time>2026-05-07T22:39:14Z</time></trkpt>
<trkpt lat="50.458899" lon="4.700378"><time>2026-05-07T22:49:14Z</time></trkpt>
<trkpt lat="50.458835" lon="4.700560"><time>2026-05-07T22:59:14Z</time></trkpt>
</trkseg>
</trk>
<trk>
<name>njmmsi11</name>
<cmt>v</cmt>
<desc>Moustier-sur-Sambre Sentier n°i11 </desc>
<link href="https://chemins.be/moustiersursambre/sentier/i11"/><trkseg>
<trkpt lat="50.460928" lon="4.697051"><time>2026-05-07T22:19:14Z</time></trkpt>
<trkpt lat="50.460630" lon="4.698360"><time>2026-05-07T22:29:14Z</time></trkpt>
<trkpt lat="50.460094" lon="4.699365"><time>2026-05-07T22:39:14Z</time></trkpt>
<trkpt lat="50.460006" lon="4.699530"><time>2026-05-07T22:49:14Z</time></trkpt>
<trkpt lat="50.459763" lon="4.699794"><time>2026-05-07T22:59:14Z</time></trkpt>
</trkseg>
</trk>
<trk>
<name>njmmsi12</name>
<cmt>v</cmt>
<desc>Moustier-sur-Sambre Chemin n°i12 </desc>
<link href="https://chemins.be/moustiersursambre/chemin/i12"/><trkseg>
<trkpt lat="50.458557" lon="4.695860"><time>2026-05-07T22:19:14Z</time></trkpt>
<trkpt lat="50.458705" lon="4.695213"><time>2026-05-07T22:29:14Z</time></trkpt>
</trkseg></trk>
<trk>
<name>njmmsi12</name>
<cmt>d</cmt>
<desc>Moustier-sur-Sambre Chemin n°i12 </desc>
<link href="https://chemins.be/moustiersursambre/chemin/i12"/><trkseg>
<trkpt lat="50.458705" lon="4.695213"><time>2026-05-07T22:29:14Z</time></trkpt>
<trkpt lat="50.459204" lon="4.695370"><time>2026-05-07T22:39:14Z</time></trkpt>
</trkseg>
</trk>
<trk>
<name>njmmsi13</name>
<cmt>v</cmt>
<desc>Moustier-sur-Sambre Chemin n°i13 </desc>
<link href="https://chemins.be/moustiersursambre/chemin/i13"/><trkseg>
<trkpt lat="50.448536" lon="4.685968"><time>2026-05-07T22:19:14Z</time></trkpt>
<trkpt lat="50.449574" lon="4.685710"><time>2026-05-07T22:29:14Z</time></trkpt>
<trkpt lat="50.449915" lon="4.685421"><time>2026-05-07T22:39:14Z</time></trkpt>
<trkpt lat="50.450086" lon="4.685507"><time>2026-05-07T22:49:14Z</time></trkpt>
<trkpt lat="50.450411" lon="4.685468"><time>2026-05-07T22:59:14Z</time></trkpt>
</trkseg>
</trk>
<trk>
<name>njmmsi14</name>
<cmt>v</cmt>
<desc>Moustier-sur-Sambre Sentier n°i14 </desc>
<link href="https://chemins.be/moustiersursambre/sentier/i14"/><trkseg>
<trkpt lat="50.451635" lon="4.681886"><time>2026-05-07T22:19:14Z</time></trkpt>
<trkpt lat="50.451351" lon="4.681010"><time>2026-05-07T22:29:14Z</time></trkpt>
</trkseg>
</trk>
<trk>
<name>njmmsi2</name>
<cmt>q</cmt>
<desc>Moustier-sur-Sambre Chemin n°i2 </desc>
<link href="https://chemins.be/moustiersursambre/chemin/i2"/><trkseg>
<trkpt lat="50.461804" lon="4.677159"><time>2026-05-07T22:19:14Z</time></trkpt>
<trkpt lat="50.461642" lon="4.677172"><time>2026-05-07T22:29:14Z</time></trkpt>
<trkpt lat="50.461126" lon="4.678352"><time>2026-05-07T22:39:14Z</time></trkpt>
<trkpt lat="50.460837" lon="4.678998"><time>2026-05-07T22:49:14Z</time></trkpt>
<trkpt lat="50.460531" lon="4.679235"><time>2026-05-07T22:59:14Z</time></trkpt>
</trkseg>
</trk>
<trk>
<name>njmmsi3</name>
<cmt>s</cmt>
<desc>Moustier-sur-Sambre Sentier n°i3 </desc>
<link href="https://chemins.be/moustiersursambre/sentier/i3"/><trkseg>
<trkpt lat="50.461280" lon="4.694324"><time>2026-05-07T22:19:14Z</time></trkpt>
<trkpt lat="50.463123" lon="4.694492"><time>2026-05-07T22:29:14Z</time></trkpt>
</trkseg>
</trk>
<trk>
<name>njmmsi4</name>
<cmt>q</cmt>
<desc>Moustier-sur-Sambre Chemin n°i4 </desc>
<link href="https://chemins.be/moustiersursambre/chemin/i4"/><trkseg>
<trkpt lat="50.474047" lon="4.677619"><time>2026-05-07T22:19:14Z</time></trkpt>
<trkpt lat="50.474120" lon="4.677183"><time>2026-05-07T22:29:14Z</time></trkpt>
<trkpt lat="50.473555" lon="4.676715"><time>2026-05-07T22:39:14Z</time></trkpt>
<trkpt lat="50.473520" lon="4.676616"><time>2026-05-07T22:49:14Z</time></trkpt>
<trkpt lat="50.473432" lon="4.675545"><time>2026-05-07T22:59:14Z</time></trkpt>
<trkpt lat="50.473135" lon="4.675796"><time>2026-05-07T23:09:14Z</time></trkpt>
<trkpt lat="50.472516" lon="4.675186"><time>2026-05-07T23:19:14Z</time></trkpt>
<trkpt lat="50.472381" lon="4.675467"><time>2026-05-07T23:29:14Z</time></trkpt>
<trkpt lat="50.472623" lon="4.675708"><time>2026-05-07T23:39:14Z</time></trkpt>
<trkpt lat="50.472667" lon="4.676089"><time>2026-05-07T23:49:14Z</time></trkpt>
<trkpt lat="50.472640" lon="4.676187"><time>2026-05-07T23:59:14Z</time></trkpt>
</trkseg>
</trk>
<trk>
<name>njmmsi5</name>
<cmt>r</cmt>
<desc>Moustier-sur-Sambre Chemin n°i5 Rue de la Fonderie</desc>
<link href="https://chemins.be/moustiersursambre/chemin/i5"/><trkseg>
<trkpt lat="50.452253" lon="4.694642"><time>2026-05-07T22:19:14Z</time></trkpt>
<trkpt lat="50.452525" lon="4.693701"><time>2026-05-07T22:29:14Z</time></trkpt>
<trkpt lat="50.452331" lon="4.692643"><time>2026-05-07T22:39:14Z</time></trkpt>
<trkpt lat="50.452233" lon="4.692192"><time>2026-05-07T22:49:14Z</time></trkpt>
<trkpt lat="50.451538" lon="4.689864"><time>2026-05-07T22:59:14Z</time></trkpt>
<trkpt lat="50.451039" lon="4.688368"><time>2026-05-07T23:09:14Z</time></trkpt>
<trkpt lat="50.450088" lon="4.687559"><time>2026-05-07T23:19:14Z</time></trkpt>
<trkpt lat="50.449369" lon="4.687470"><time>2026-05-07T23:29:14Z</time></trkpt>
<trkpt lat="50.448792" lon="4.688156"><time>2026-05-07T23:39:14Z</time></trkpt>
</trkseg>
</trk>
<trk>
<name>njmmsi6</name>
<cmt>v</cmt>
<desc>Moustier-sur-Sambre Sentier n°i6 </desc>
<link href="https://chemins.be/moustiersursambre/sentier/i6"/><trkseg>
<trkpt lat="50.452704" lon="4.697363"><time>2026-05-07T22:19:14Z</time></trkpt>
<trkpt lat="50.452507" lon="4.700108"><time>2026-05-07T22:29:14Z</time></trkpt>
<trkpt lat="50.451806" lon="4.703130"><time>2026-05-07T22:39:14Z</time></trkpt>
</trkseg>
</trk>
<trk>
<name>njmmsi7</name>
<cmt>v</cmt>
<desc>Moustier-sur-Sambre Chemin n°i7 </desc>
<link href="https://chemins.be/moustiersursambre/chemin/i7"/><trkseg>
<trkpt lat="50.448210" lon="4.685711"><time>2026-05-07T22:19:14Z</time></trkpt>
<trkpt lat="50.447499" lon="4.683559"><time>2026-05-07T22:29:14Z</time></trkpt>
</trkseg>
</trk>
<trk>
<name>njmmsi8</name>
<cmt>v</cmt>
<desc>Moustier-sur-Sambre Sentier n°i8 </desc>
<link href="https://chemins.be/moustiersursambre/sentier/i8"/><trkseg>
<trkpt lat="50.460549" lon="4.682604"><time>2026-05-07T22:19:14Z</time></trkpt>
<trkpt lat="50.460647" lon="4.681479"><time>2026-05-07T22:29:14Z</time></trkpt>
<trkpt lat="50.460478" lon="4.680698"><time>2026-05-07T22:39:14Z</time></trkpt>
<trkpt lat="50.459539" lon="4.681049"><time>2026-05-07T22:49:14Z</time></trkpt>
<trkpt lat="50.457463" lon="4.681770"><time>2026-05-07T22:59:14Z</time></trkpt>
<trkpt lat="50.454434" lon="4.682192"><time>2026-05-07T23:09:14Z</time></trkpt>
<trkpt lat="50.451883" lon="4.681785"><time>2026-05-07T23:19:14Z</time></trkpt>
<trkpt lat="50.451577" lon="4.681896"><time>2026-05-07T23:29:14Z</time></trkpt>
<trkpt lat="50.451425" lon="4.682668"><time>2026-05-07T23:39:14Z</time></trkpt>
<trkpt lat="50.451745" lon="4.685930"><time>2026-05-07T23:49:14Z</time></trkpt>
</trkseg>
</trk>
<trk>
<name>njmmsi9</name>
<cmt>q</cmt>
<desc>Moustier-sur-Sambre Chemin n°i9 </desc>
<link href="https://chemins.be/moustiersursambre/chemin/i9"/><trkseg>
<trkpt lat="50.467061" lon="4.698286"><time>2026-05-07T22:19:14Z</time></trkpt>
<trkpt lat="50.466581" lon="4.698269"><time>2026-05-07T22:29:14Z</time></trkpt>
</trkseg>
</trk>
<trk>
<name>njmmsL130</name>
<cmt>t</cmt>
<desc>Moustier-sur-Sambre Chemin n°L130 </desc>
<link href="https://chemins.be/moustiersursambre/chemin/L130"/><trkseg>
<trkpt lat="50.451431" lon="4.679654"><time>2026-05-07T22:19:14Z</time></trkpt>
<trkpt lat="50.451062" lon="4.683144"><time>2026-05-07T22:29:14Z</time></trkpt>
<trkpt lat="50.451632" lon="4.688428"><time>2026-05-07T22:39:14Z</time></trkpt>
<trkpt lat="50.452547" lon="4.692504"><time>2026-05-07T22:49:14Z</time></trkpt>
<trkpt lat="50.452926" lon="4.695238"><time>2026-05-07T22:59:14Z</time></trkpt>
<trkpt lat="50.452947" lon="4.697407"><time>2026-05-07T23:09:14Z</time></trkpt>
<trkpt lat="50.452777" lon="4.700011"><time>2026-05-07T23:19:14Z</time></trkpt>
<trkpt lat="50.452185" lon="4.702724"><time>2026-05-07T23:29:14Z</time></trkpt>
</trkseg>
</trk>
</gpx>